Regional Weather Roundup
Issued by NWS

Home | Current Version | Previous Version | Graphics & Text | Print | Product List | Glossary On
Versions: 1 2 3 4 5 6 7 8 9 10 11 12 13 14 15 16 17 18 19 20 21 22 23 24 25 26 27
000
ASUS45 KBOU 242210
RWRCO

WEATHER ROUNDUP FOR COLORADO
NATIONAL WEATHER SERVICE DENVER/BOULDER CO
300 PM MST FRI NOV 24 2017

NOTE: "FAIR" INDICATES FEW OR NO CLOUDS BELOW 12000 FEET WITH NO
SIGNIFICANT WEATHER AND/OR OBSTRUCTIONS TO VISIBILITY.

COZ001>005-013-030-031-242300-
...NORTHWEST COLORADO...

CITY           SKY/WX    TMP DP  RH WIND       PRES   REMARKS
CRAIG          PTSUNNY   60  29  30 W15G30    30.02R
HAYDEN         PTSUNNY   56  31  38 W18G28    30.02R
MEEKER         FAIR      60  24  25 W18G28    30.02R
RABBIT EARS PA CLOUDY    36  30  80 W14G23    30.12S
STEAMBOAT SPGS PTSUNNY   51  32  48 W25G35    30.03R
WALDEN         FAIR      41  27  56 W33G44    30.07F
$$

COZ006>008-011-242300-
...WEST CENTRAL VALLEYS...

CITY           SKY/WX    TMP DP  RH WIND       PRES   REMARKS
GRAND JUNCTION FAIR      62  33  33 NW7       30.00R
MONTROSE       FAIR      62  27  26 CALM      30.03F
EAGLE          FAIR      60  29  30 W21       30.02S
RIFLE          CLOUDY    61  34  36 W8        29.98F
DELTA          FAIR      66  32  28 SW12      30.00S
NUCLA          FAIR      64  27  24 N5        30.07F
$$

COZ017>023-064>068-242300-
...SOUTHWEST COLORADO...

CITY           SKY/WX    TMP DP  RH WIND       PRES   REMARKS
DURANGO        FAIR      64  28  25 SW16      30.03F
CORTEZ         FAIR      63  23  21 NW15      30.06R
PAGOSA SPRINGS FAIR      60  22  22 SW12      30.09S
TELLURIDE      CLOUDY    55  24  29 W16G23    30.20S
WOLF CREEK PAS NOT AVBL
$$

COZ009-010-012-014-032>034-037-058>063-242300-
...CENTRAL COLORADO...

CITY           SKY/WX    TMP DP  RH WIND       PRES   REMARKS
ASPEN          PTSUNNY   53  27  36 N5        30.06S
BUENA VISTA    FAIR      56  17  21 SW21G35   30.04R
COPPER MTN     PTSUNNY   37  19  48 MISG      30.19R HAZE
BERTHOUD PASS  CLOUDY    28  18  64 W47G61    30.14S HAZE    WCI  10
COTTONWOOD PAS FAIR      52  19  28 W12G33    30.12S
GUNNISON       FAIR      49  28  44 N5        30.09F
KREMMLING      PTSUNNY   59  21  23 NW15G21   30.02R
LEADVILLE      FAIR      41  20  43 W13G25    30.13S
MONARCH PASS   CLOUDY    36  21  55 W38G47    30.32S
SALIDA         FAIR      61  20  21 W17G26    30.11S
SUNLIGHT       FAIR      37  25  60 SW10G29   30.21R
WILKERSON PASS FAIR      41  18  38 W9G21     30.21R
$$

COZ069>075-242300-
...SAN LUIS VALLEY/SANGRE DE CRISTO MOUNTAINS...

CITY           SKY/WX    TMP DP  RH WIND       PRES   REMARKS
ALAMOSA        FAIR      66  20  17 N14       30.01R
DEL NORTE      FAIR      65  18  16 W17G36    30.04R
LA VETA PASS   FAIR      54  19  26 SW10        N/A
SAGUACHE       FAIR      59  23  25 NW24G41   30.07R
$$

COZ035-036-038>040-242300-
...NORTHERN COLORADO FRONT RANGE...

CITY           SKY/WX    TMP DP  RH WIND       PRES   REMARKS
DENVER INTL AP PTSUNNY   65  25  22 N16G33    29.89R
DMNS CITY PARK   N/A     65  22  19 N17G28    29.90R
AURORA         PTSUNNY   68  24  19 NW16G24   29.90R
FRONT RANGE AP PTSUNNY   70  25  18 SW16G31   29.90R
ERIE MUNI ARPT FAIR      65  23  20 W21G29    29.93R
BOULDER MUN AP FAIR      63  28  27 SW17G29   29.88R
CENTENNIAL     FAIR      66  27  23 W8G21     29.90S
BROOMFIELD     PTSUNNY   64  25  22 W30G46    29.91R
FORT COLLINS   PTSUNNY   60  31  33 NW31G44   29.86R
LONGMONT       FAIR      72  19  14 SW12      29.88R
$$

COZ041-046-047-076>085-087-088-242300-
...PIKES PEAK/PALMER DIVIDE AND SOUTHERN FOOTHILLS...

CITY           SKY/WX    TMP DP  RH WIND       PRES   REMARKS
COLO. SPRINGS  FAIR      71  23  16 NW12G20   29.90R
A. F. ACADEMY  FAIR      66  21  18 W14G24    29.93R
SCHRIEVER AFB  PTSUNNY   65  21  18 E12       29.91R
CHEYENNE MTN   FAIR      61  20  20 NW9       29.89R
ELLICOTT         N/A    N/A N/A N/A NE14      29.90R
FALCON         PTSUNNY   64  21  19 N9        29.95R
FORT CARSON    FAIR      73  21  14 E12G17    29.87R
LIMON          FAIR      64  24  21 E13       29.88R
MONUMENT HILL  FAIR      61  27  27 NW16      29.97S
CANON CITY     FAIR      73  23  15 W17G28    29.86R
WALSENBURG     FAIR      75  21  13 W14G23    29.89R
TRINIDAD       FAIR      75  21  13 NW14G22   29.86R
$$

COZ042>045-048>051-090-091-242300-
...NORTHEAST COLORADO...

CITY           SKY/WX    TMP DP  RH WIND       PRES   REMARKS
GREELEY ARPT   FAIR      60  34  37 NE8G21    29.88R
AKRON          FAIR      59  33  37 N22G30    29.89R
BURLINGTON     FAIR      64  33  31 NE17      29.83R
WRAY           NOT AVBL
YUMA           FAIR      59  18  20 N21G28    29.86R
STERLING       FAIR      55  36  47 N13G21    29.88R
HOLYOKE        FAIR      64  34  32 N22G28    29.85R
FORT MORGAN    LGT RAIN  55  34  46 NE15      29.91R
$$

COZ086-089-092>099-242300-
...SOUTHEAST COLORADO...

CITY           SKY/WX    TMP DP  RH WIND       PRES   REMARKS
PUEBLO         FAIR      78  19  11 W24G30    29.80R
LA JUNTA       FAIR      80  23  12 N10       29.77S
LAMAR          FAIR      76  27  16 N12       29.74R
SPRINGFIELD      N/A     71  23  16 NW9       29.78R
$$




USA.gov is the U.S. government's official web portal to all federal, state and local government web resources and services.